EZY14LB EGGD-LEIB

Flight info

Callsign EZY14LB
Flight time 2h 12m
Altitude 35000
Route YORQI L607 ALHAD UN859 SOPIL DCT BALAN DCT EVPOK DCT NARAK DCT GAI DCT LOMRA DCT ROCAN/N0467F310 DCT PUMAL N859 BCN Z174 CORDA
Aircraft A320/M-SDE3FGHIRWY/LB1

Departure

Time 2026-05-04 10:33
Airport Bristol Airport (EGGD)

Arrival

Time 2026-05-04 12:45
Airport Ibiza Airport (LEIB)
Time Latitude Longitude Altitude Speed Heading
2026-05-04 10:04 51.38612 -2.70771 624 ft 0 kts 86°
2026-05-04 10:28 51.38612 -2.70747 615 ft 7 kts 90°
2026-05-04 10:28 51.38607 -2.70655 619 ft 8 kts 129°
2026-05-04 10:29 51.38540 -2.70636 610 ft 10 kts 177°
2026-05-04 10:29 51.38478 -2.70669 617 ft 4 kts 229°
2026-05-04 10:29 51.38444 -2.70702 618 ft 13 kts 203°
2026-05-04 10:29 51.38329 -2.70779 611 ft 19 kts 223°
2026-05-04 10:30 51.38304 -2.71006 610 ft 23 kts 266°
2026-05-04 10:30 51.38292 -2.71290 609 ft 26 kts 266°
2026-05-04 10:30 51.38281 -2.71586 620 ft 26 kts 266°
2026-05-04 10:30 51.38270 -2.71867 617 ft 24 kts 266°
2026-05-04 10:31 51.38260 -2.72139 620 ft 26 kts 266°
2026-05-04 10:31 51.38248 -2.72440 628 ft 27 kts 266°
2026-05-04 10:32 51.38243 -2.72542 630 ft 92 kts 87°
2026-05-04 10:33 51.38298 -2.71163 624 ft 151 kts 86°
2026-05-04 10:33 51.38358 -2.69501 1348 ft 148 kts 86°
2026-05-04 10:33 51.38407 -2.67806 1860 ft 162 kts 87°
2026-05-04 10:33 51.38461 -2.65895 2140 ft 182 kts 87°
2026-05-04 10:34 51.38537 -2.63736 2368 ft 206 kts 82°
2026-05-04 10:34 51.39004 -2.61458 2697 ft 231 kts 68°
2026-05-04 10:34 51.39642 -2.58967 3194 ft 249 kts 68°
2026-05-04 10:34 51.40306 -2.56345 3974 ft 256 kts 69°
2026-05-04 10:35 51.40977 -2.53684 4853 ft 259 kts 69°
2026-05-04 10:35 51.41654 -2.50992 5699 ft 263 kts 69°
2026-05-04 10:35 51.42346 -2.48243 6523 ft 267 kts 69°
2026-05-04 10:35 51.43045 -2.45463 7304 ft 271 kts 69°
2026-05-04 10:36 51.43755 -2.42640 8077 ft 275 kts 69°
2026-05-04 10:36 51.44466 -2.39800 8817 ft 280 kts 69°
2026-05-04 10:36 51.45204 -2.36853 9495 ft 288 kts 70°
2026-05-04 10:36 51.45961 -2.33821 10202 ft 294 kts 69°
2026-05-04 10:37 51.46745 -2.30670 10479 ft 316 kts 70°
2026-05-04 10:37 51.47577 -2.27313 10656 ft 339 kts 69°
2026-05-04 10:37 51.48481 -2.23666 10783 ft 361 kts 69°
2026-05-04 10:37 51.49401 -2.19813 11155 ft 373 kts 74°
2026-05-04 10:39 51.48836 -1.94498 14845 ft 390 kts 98°
2026-05-04 10:39 51.48531 -1.90196 15356 ft 393 kts 98°
2026-05-04 10:39 51.48216 -1.85802 15874 ft 397 kts 98°
2026-05-04 10:40 51.47895 -1.81379 16387 ft 400 kts 98°
2026-05-04 10:40 51.47567 -1.76917 16911 ft 403 kts 98°
2026-05-04 10:40 51.47235 -1.72438 17427 ft 406 kts 98°
2026-05-04 10:40 51.46890 -1.67913 17933 ft 409 kts 100°
2026-05-04 10:41 51.46333 -1.63497 18392 ft 411 kts 104°
2026-05-04 10:41 51.45720 -1.58984 18832 ft 414 kts 104°
2026-05-04 10:41 51.45098 -1.54451 19241 ft 417 kts 104°
2026-05-04 10:41 51.44474 -1.49884 19645 ft 420 kts 104°
2026-05-04 10:42 51.43852 -1.45339 20051 ft 423 kts 104°
2026-05-04 10:42 51.43215 -1.40709 20464 ft 427 kts 104°
2026-05-04 10:42 51.42569 -1.36036 20859 ft 430 kts 104°
2026-05-04 10:42 51.41917 -1.31337 21249 ft 433 kts 104°
2026-05-04 10:43 51.41244 -1.26617 21637 ft 435 kts 107°
2026-05-04 10:44 51.26159 -1.05100 24146 ft 435 kts 157°
2026-05-04 10:45 51.23394 -1.03079 24487 ft 436 kts 157°
2026-05-04 10:45 51.20632 -1.01060 24812 ft 437 kts 157°
2026-05-04 10:45 51.17852 -0.99030 25130 ft 438 kts 157°
2026-05-04 10:45 51.15105 -0.97028 25435 ft 439 kts 158°
2026-05-04 10:46 51.12327 -0.95005 25747 ft 440 kts 158°
2026-05-04 10:46 51.09541 -0.92979 26011 ft 441 kts 158°
2026-05-04 10:46 51.06742 -0.90951 26301 ft 442 kts 158°
2026-05-04 10:46 51.03932 -0.88920 26609 ft 443 kts 158°
2026-05-04 10:47 51.01120 -0.86890 26892 ft 444 kts 158°
2026-05-04 10:47 50.98304 -0.84858 27289 ft 442 kts 158°
2026-05-04 10:47 50.95506 -0.82843 27721 ft 439 kts 159°
2026-05-04 10:47 50.92742 -0.80855 28169 ft 437 kts 159°
2026-05-04 10:49 50.74569 -0.64519 30979 ft 428 kts 151°
2026-05-04 10:49 50.72057 -0.61967 31246 ft 428 kts 151°
2026-05-04 10:50 50.69544 -0.59419 31509 ft 429 kts 151°
2026-05-04 10:51 50.51982 -0.41706 33457 ft 429 kts 150°
2026-05-04 10:52 50.49467 -0.39182 33730 ft 429 kts 150°
2026-05-04 10:52 50.46969 -0.36680 33988 ft 429 kts 150°
2026-05-04 10:52 50.44448 -0.34159 34208 ft 430 kts 150°
2026-05-04 10:54 50.26695 -0.16481 35016 ft 436 kts 150°
2026-05-04 10:54 50.24125 -0.13934 35016 ft 436 kts 150°
2026-05-04 10:56 50.06617 0.01343 35008 ft 429 kts 168°
2026-05-04 10:56 50.03704 0.02475 35022 ft 429 kts 168°
2026-05-04 10:57 49.97920 0.04750 35034 ft 428 kts 167°
2026-05-04 10:57 49.92179 0.07017 35020 ft 427 kts 167°
2026-05-04 10:58 49.86399 0.09285 35024 ft 427 kts 168°
2026-05-04 10:58 49.80661 0.11519 35026 ft 427 kts 168°
2026-05-04 10:59 49.74893 0.13771 35026 ft 426 kts 168°
2026-05-04 10:59 49.69161 0.16009 35039 ft 426 kts 168°
2026-05-04 11:00 49.63412 0.18284 35032 ft 426 kts 167°
2026-05-04 11:02 49.40480 0.27530 34998 ft 426 kts 167°
2026-05-04 11:05 48.97529 0.45353 34941 ft 427 kts 166°
2026-05-04 11:06 48.91795 0.47752 34957 ft 427 kts 166°
2026-05-04 11:06 48.86073 0.50130 34969 ft 427 kts 166°
2026-05-04 11:10 48.45830 0.66073 34966 ft 427 kts 166°
2026-05-04 11:12 48.22915 0.75397 34960 ft 427 kts 167°
2026-05-04 11:12 48.17196 0.77655 34957 ft 427 kts 167°
2026-05-04 11:13 48.11439 0.79902 34959 ft 427 kts 167°
2026-05-04 11:13 48.05671 0.82164 34960 ft 427 kts 167°
2026-05-04 11:14 47.99914 0.84420 34958 ft 427 kts 167°
2026-05-04 11:16 47.76952 0.93337 34962 ft 425 kts 167°
2026-05-04 11:16 47.71254 0.95539 34964 ft 425 kts 167°
2026-05-04 11:17 47.65518 0.97755 34973 ft 425 kts 167°
2026-05-04 11:19 47.42584 1.06258 34964 ft 422 kts 176°
2026-05-04 11:19 47.36755 1.06305 34961 ft 420 kts 182°
2026-05-04 11:20 47.30894 1.06158 34959 ft 420 kts 182°
2026-05-04 11:20 47.25022 1.06018 34953 ft 429 kts 182°
2026-05-04 11:22 47.01003 1.05447 34958 ft 432 kts 182°
2026-05-04 11:23 46.94985 1.05207 34957 ft 432 kts 183°
2026-05-04 11:25 46.73994 1.04274 34957 ft 432 kts 183°
2026-05-04 11:25 46.67966 1.04023 34953 ft 432 kts 183°
2026-05-04 11:27 46.41135 1.06842 34948 ft 435 kts 169°
2026-05-04 11:28 46.35269 1.08796 34944 ft 435 kts 170°
2026-05-04 11:28 46.29360 1.10761 34950 ft 434 kts 170°
2026-05-04 11:29 46.23470 1.12717 34959 ft 435 kts 170°
2026-05-04 11:29 46.17587 1.14669 34957 ft 435 kts 170°
2026-05-04 11:33 45.76364 1.28230 34964 ft 434 kts 171°
2026-05-04 11:33 45.70467 1.30148 34965 ft 433 kts 171°
2026-05-04 11:34 45.64609 1.32045 34956 ft 433 kts 171°
2026-05-04 11:34 45.58725 1.33960 34953 ft 433 kts 170°
2026-05-04 11:35 45.52828 1.35873 34940 ft 433 kts 171°
2026-05-04 11:35 45.46975 1.37759 34941 ft 433 kts 171°
2026-05-04 11:36 45.41069 1.39665 34948 ft 434 kts 171°
2026-05-04 11:36 45.35197 1.41557 34941 ft 434 kts 171°
2026-05-04 11:37 45.29308 1.43446 34944 ft 435 kts 171°
2026-05-04 11:37 45.23396 1.45345 34946 ft 435 kts 171°
2026-05-04 11:38 45.17519 1.47217 34937 ft 435 kts 171°
2026-05-04 11:38 45.11599 1.49099 34938 ft 435 kts 171°
2026-05-04 11:39 45.06688 1.50668 34940 ft 435 kts 171°
2026-05-04 11:41 44.86048 1.57209 34951 ft 434 kts 172°
2026-05-04 11:41 44.80159 1.59074 34957 ft 433 kts 172°
2026-05-04 11:42 44.74282 1.60917 34956 ft 433 kts 172°
2026-05-04 11:42 44.68412 1.62757 34957 ft 433 kts 172°
2026-05-04 11:43 44.62548 1.64607 34957 ft 433 kts 172°
2026-05-04 11:43 44.56644 1.66461 34954 ft 432 kts 172°
2026-05-04 11:44 44.50788 1.68287 34957 ft 432 kts 172°
2026-05-04 11:44 44.44931 1.70104 34954 ft 432 kts 172°
2026-05-04 11:45 44.39056 1.71923 34938 ft 432 kts 172°
2026-05-04 11:45 44.33180 1.73746 34947 ft 432 kts 172°
2026-05-04 11:46 44.27342 1.75496 34961 ft 430 kts 174°
2026-05-04 11:46 44.21424 1.76840 34962 ft 429 kts 176°
2026-05-04 11:47 44.15550 1.78008 34960 ft 429 kts 176°
2026-05-04 11:47 44.09632 1.79257 34962 ft 430 kts 176°
2026-05-04 11:48 44.03709 1.80571 34957 ft 429 kts 176°
2026-05-04 11:48 43.97824 1.81882 34944 ft 429 kts 176°
2026-05-04 11:49 43.91918 1.82972 34953 ft 427 kts 180°
2026-05-04 11:49 43.86025 1.83506 34958 ft 425 kts 182°
2026-05-04 11:50 43.80111 1.83927 34948 ft 425 kts 182°
2026-05-04 11:50 43.74180 1.84444 34973 ft 427 kts 181°
2026-05-04 11:51 43.68299 1.85037 34970 ft 425 kts 181°
2026-05-04 11:51 43.62383 1.85625 34971 ft 425 kts 181°
2026-05-04 11:52 43.56509 1.86192 34953 ft 425 kts 181°
2026-05-04 11:52 43.50595 1.86756 34963 ft 425 kts 181°
2026-05-04 11:53 43.44721 1.87319 34963 ft 425 kts 181°
2026-05-04 11:53 43.38815 1.87884 34946 ft 424 kts 182°
2026-05-04 11:55 43.15286 1.90126 34951 ft 424 kts 182°
2026-05-04 11:56 43.09394 1.90691 34951 ft 424 kts 182°
2026-05-04 11:56 43.03531 1.91253 34919 ft 424 kts 182°
2026-05-04 11:57 42.97621 1.91809 34913 ft 424 kts 182°
2026-05-04 11:57 42.91754 1.92365 34921 ft 425 kts 182°
2026-05-04 11:58 42.85869 1.92925 34933 ft 425 kts 182°
2026-05-04 11:58 42.79950 1.93485 34939 ft 425 kts 182°
2026-05-04 11:59 42.74031 1.94037 34948 ft 425 kts 182°
2026-05-04 11:59 42.68147 1.94581 34953 ft 425 kts 182°
2026-05-04 12:00 42.62223 1.95469 34955 ft 429 kts 178°
2026-05-04 12:00 42.56355 1.96766 34945 ft 429 kts 177°
2026-05-04 12:01 42.50447 1.98086 34957 ft 429 kts 178°
2026-05-04 12:02 42.29787 2.01695 34934 ft 424 kts 183°
2026-05-04 12:03 42.23911 2.02115 34942 ft 424 kts 183°
2026-05-04 12:03 42.18006 2.02588 34943 ft 425 kts 182°
2026-05-04 12:04 42.12086 2.03149 34937 ft 426 kts 182°
2026-05-04 12:04 42.06206 2.03727 34936 ft 426 kts 182°
2026-05-04 12:05 42.00282 2.04297 34940 ft 426 kts 182°
2026-05-04 12:05 41.94360 2.04858 34935 ft 425 kts 182°
2026-05-04 12:06 41.88484 2.05399 34943 ft 424 kts 182°
2026-05-04 12:06 41.82571 2.05949 34950 ft 424 kts 182°
2026-05-04 12:07 41.76709 2.06501 34950 ft 424 kts 182°
2026-05-04 12:07 41.70850 2.07050 34947 ft 423 kts 183°
2026-05-04 12:08 41.64985 2.07599 34950 ft 422 kts 183°
2026-05-04 12:08 41.59124 2.08141 34952 ft 421 kts 183°
2026-05-04 12:09 41.53306 2.08683 34942 ft 420 kts 183°
2026-05-04 12:09 41.47465 2.09227 34970 ft 420 kts 183°
2026-05-04 12:10 41.41633 2.09769 34980 ft 420 kts 183°
2026-05-04 12:10 41.35798 2.10307 34980 ft 419 kts 183°
2026-05-04 12:11 41.30010 2.10851 34960 ft 419 kts 182°
2026-05-04 12:11 41.24185 2.11717 34971 ft 421 kts 180°
2026-05-04 12:12 41.18369 2.12791 34973 ft 421 kts 180°
2026-05-04 12:12 41.12588 2.13830 34973 ft 421 kts 180°
2026-05-04 12:14 40.89378 2.17684 34964 ft 419 kts 180°
2026-05-04 12:15 40.83608 2.18646 34942 ft 420 kts 181°
2026-05-04 12:15 40.77798 2.19606 34948 ft 420 kts 181°
2026-05-04 12:16 40.72025 2.20560 34952 ft 420 kts 181°
2026-05-04 12:16 40.66224 2.21512 34955 ft 420 kts 181°
2026-05-04 12:17 40.60420 2.22471 34959 ft 420 kts 180°
2026-05-04 12:17 40.54609 2.23430 34963 ft 420 kts 181°
2026-05-04 12:18 40.48797 2.24385 34958 ft 420 kts 181°
2026-05-04 12:18 40.43020 2.25335 34934 ft 420 kts 180°
2026-05-04 12:19 40.37200 2.26516 34939 ft 424 kts 177°
2026-05-04 12:19 40.31426 2.28087 34950 ft 426 kts 176°
2026-05-04 12:20 40.25614 2.29707 34924 ft 426 kts 176°
2026-05-04 12:20 40.19799 2.31241 34955 ft 427 kts 176°
2026-05-04 12:21 40.13956 2.32735 34965 ft 427 kts 177°
2026-05-04 12:21 40.08114 2.34221 34968 ft 427 kts 176°
2026-05-04 12:22 40.02303 2.35717 34967 ft 427 kts 176°
2026-05-04 12:22 39.96456 2.37215 34945 ft 427 kts 176°
2026-05-04 12:23 39.90658 2.38691 34951 ft 427 kts 176°
2026-05-04 12:23 39.84800 2.40186 34956 ft 427 kts 176°
2026-05-04 12:24 39.78971 2.41679 34965 ft 427 kts 176°
2026-05-04 12:24 39.73112 2.42360 34960 ft 416 kts 191°
2026-05-04 12:25 39.68367 2.41642 34854 ft 411 kts 193°
2026-05-04 12:25 39.65542 2.41202 34615 ft 406 kts 193°
2026-05-04 12:25 39.61823 2.40626 33662 ft 407 kts 193°
2026-05-04 12:26 39.59961 2.40197 33031 ft 404 kts 200°
2026-05-04 12:26 39.57326 2.39015 32178 ft 399 kts 209°
2026-05-04 12:26 39.54921 2.37227 31206 ft 397 kts 218°
2026-05-04 12:26 39.52832 2.34879 30205 ft 400 kts 227°
2026-05-04 12:27 39.51110 2.32028 29050 ft 404 kts 236°
2026-05-04 12:27 39.49599 2.29003 27981 ft 406 kts 236°
2026-05-04 12:27 39.48049 2.25929 26873 ft 408 kts 236°
2026-05-04 12:27 39.46476 2.22829 25783 ft 410 kts 236°
2026-05-04 12:28 39.44895 2.19729 24736 ft 412 kts 237°
2026-05-04 12:28 39.43330 2.16667 23733 ft 413 kts 237°
2026-05-04 12:28 39.41742 2.13556 22585 ft 414 kts 237°
2026-05-04 12:28 39.40153 2.10442 21502 ft 414 kts 237°
2026-05-04 12:29 39.38575 2.07348 20695 ft 409 kts 237°
2026-05-04 12:29 39.37010 2.04291 19883 ft 406 kts 237°
2026-05-04 12:29 39.35452 2.01254 19099 ft 403 kts 237°
2026-05-04 12:29 39.33907 1.98233 18329 ft 401 kts 237°
2026-05-04 12:30 39.32375 1.95240 17658 ft 395 kts 238°
2026-05-04 12:30 39.30912 1.92383 17520 ft 377 kts 238°
2026-05-04 12:30 39.29499 1.89625 17397 ft 360 kts 237°
2026-05-04 12:30 39.28146 1.86987 17269 ft 345 kts 237°
2026-05-04 12:31 39.26845 1.84458 17135 ft 331 kts 237°
2026-05-04 12:31 39.25588 1.82021 17012 ft 319 kts 237°
2026-05-04 12:31 39.24383 1.79683 16867 ft 307 kts 237°
2026-05-04 12:31 39.23233 1.77454 16753 ft 296 kts 237°
2026-05-04 12:32 39.22113 1.75282 16632 ft 286 kts 237°
2026-05-04 12:32 39.20054 1.71083 16372 ft 267 kts 242°
2026-05-04 12:32 39.19192 1.68994 16245 ft 259 kts 243°
2026-05-04 12:33 39.18376 1.66988 16090 ft 253 kts 243°
2026-05-04 12:33 39.17561 1.64983 15838 ft 251 kts 243°
2026-05-04 12:33 39.16750 1.62999 15531 ft 249 kts 242°
2026-05-04 12:33 39.15939 1.61022 15064 ft 246 kts 242°
2026-05-04 12:34 39.15028 1.59222 14972 ft 238 kts 224°
2026-05-04 12:34 39.13546 1.58270 14979 ft 247 kts 192°
2026-05-04 12:34 39.11828 1.58626 14984 ft 263 kts 162°
2026-05-04 12:34 39.10172 1.59675 14978 ft 267 kts 159°
2026-05-04 12:35 39.08679 1.61158 14983 ft 281 kts 131°
2026-05-04 12:35 39.07975 1.63543 14985 ft 295 kts 95°
2026-05-04 12:35 39.08278 1.66149 14663 ft 305 kts 72°
2026-05-04 12:35 39.09129 1.68711 13882 ft 316 kts 62°
2026-05-04 12:36 39.10232 1.71211 12999 ft 325 kts 58°
2026-05-04 12:36 39.11388 1.73758 12118 ft 332 kts 66°
2026-05-04 12:36 39.11835 1.76643 11232 ft 330 kts 98°
2026-05-04 12:36 39.11173 1.79376 10408 ft 321 kts 128°
2026-05-04 12:37 39.09613 1.81310 9557 ft 308 kts 154°
2026-05-04 12:37 39.07631 1.82100 8725 ft 293 kts 184°
2026-05-04 12:37 39.05727 1.81439 7954 ft 281 kts 215°
2026-05-04 12:37 39.04499 1.79614 7398 ft 271 kts 245°
2026-05-04 12:38 39.03833 1.77428 6944 ft 259 kts 245°
2026-05-04 12:38 39.03077 1.75327 6275 ft 257 kts 241°
2026-05-04 12:38 39.02180 1.73388 5891 ft 244 kts 238°
2026-05-04 12:38 39.01370 1.71544 5581 ft 229 kts 240°
2026-05-04 12:39 39.00643 1.69778 5293 ft 216 kts 241°
2026-05-04 12:39 38.99960 1.68108 5017 ft 211 kts 241°
2026-05-04 12:39 38.99278 1.66442 4744 ft 209 kts 240°
2026-05-04 12:39 38.98598 1.64783 4462 ft 209 kts 240°
2026-05-04 12:40 38.97922 1.63134 4178 ft 207 kts 241°
2026-05-04 12:40 38.97251 1.61499 3901 ft 206 kts 240°
2026-05-04 12:40 38.96592 1.59895 3635 ft 205 kts 240°
2026-05-04 12:40 38.95922 1.58264 3364 ft 205 kts 240°
2026-05-04 12:41 38.95257 1.56647 3098 ft 205 kts 240°
2026-05-04 12:41 38.94599 1.55046 2822 ft 204 kts 240°
2026-05-04 12:41 38.93934 1.53429 2549 ft 203 kts 240°
2026-05-04 12:41 38.93271 1.51818 2281 ft 202 kts 239°
2026-05-04 12:42 38.92633 1.50268 2010 ft 193 kts 239°
2026-05-04 12:42 38.92021 1.48782 1768 ft 184 kts 240°
2026-05-04 12:42 38.91445 1.47384 1532 ft 169 kts 240°
2026-05-04 12:42 38.90906 1.46078 1314 ft 160 kts 240°
2026-05-04 12:43 38.90421 1.44901 1104 ft 143 kts 239°
2026-05-04 12:43 38.89965 1.43798 917 ft 137 kts 240°
2026-05-04 12:43 38.89524 1.42732 740 ft 134 kts 239°
2026-05-04 12:43 38.89088 1.41680 536 ft 136 kts 239°
2026-05-04 12:44 38.88653 1.40611 380 ft 134 kts 240°
2026-05-04 12:44 38.88231 1.39575 227 ft 131 kts 238°
2026-05-04 12:44 38.87800 1.38550 37 ft 129 kts 239°
2026-05-04 12:44 38.87410 1.37617 9 ft 103 kts 242°
2026-05-04 12:45 38.87154 1.36998 11 ft 60 kts 241°
2026-05-04 12:45 38.87098 1.36680 8 ft 21 kts 278°
2026-05-04 12:45 38.87116 1.36576 8 ft 11 kts 302°
2026-05-04 12:45 38.87169 1.36590 8 ft 8 kts 56°
2026-05-04 12:46 38.87201 1.36655 9 ft 11 kts 63°
2026-05-04 12:46 38.87249 1.36775 9 ft 16 kts 63°
2026-05-04 12:46 38.87308 1.36859 9 ft 11 kts 356°
2026-05-04 12:46 38.87372 1.36824 10 ft 9 kts 329°
2026-05-04 12:47 38.87426 1.36795 8 ft 8 kts
2026-05-04 12:47 38.87457 1.36847 8 ft 10 kts 62°
2026-05-04 12:47 38.87486 1.36917 8 ft 8 kts 62°
2026-05-04 12:47 38.87517 1.36949 8 ft 6 kts 342°
2026-05-04 12:48 38.87549 1.36927 8 ft 5 kts 332°
2026-05-04 12:48 38.87563 1.36918 8 ft 0 kts 332°